User: anonymous   Login
Location: Ostrava
(49.8330°N, 18.2830°E)
Time: 09:01:06
(UTC+02:00)
Language:

Cosmos 1400 Rocket - Orbit

View from above orbital plane
View from above orbital plane
View from above satellite
View from above satellite

Ground track
Ground track

The orbit data is extracted from the following two-line orbital elements,

1 13403U 82079B   14296.59744244  .00003539  00000-0  25156-3 0  7011
2 13403 081.1678 296.1805 0035051 220.8951 138.9641 15.03951351751116
Epoch (UTC): 23 October 2014 14:20:19
Eccentricity: 0.0035051
inclination: 81.1678°
perigee height: 530 km
apogee height: 579 km
right ascension of ascending node: 296.1805°
argument of perigee: 220.8951°
revolutions per day: 15.03951351
mean anomaly at epoch: 138.9641°
orbit number at epoch: 75111

The dashed part of the orbit path shows where the satellite is in the earth's shadow,  

DLR